No particular awareness of the weather is required.    There are no Weather-warnings


Meteo18 Weather Cam more information Meteo18 Weather Cam


Thunder radar more information blitzortung!


Rain radar more information rain snow radar


Visit our other weather sites:

Template documentation
and downloads

And another site



Weather Underground History page Text

Daily Summary for February 9, 2018 Units:  English    Metric   Both
« Previous Day
Next Day »
Daily Weekly Monthly Yearly Custom
  High: Low: Average:
Temperature: TemperatureC °F -3.2 °F -0.7 °F
Dew Point: DewpointC °F -4.2 °F -1.9 °F
Humidity: Humidity % 86 % 92 %
Wind Speed: WindSpeedKMH mph 0.0 mph 4.9 mph
Wind Gust: WindSpeedGustKMH mph - -
Wind:- - SE
Pressure: PressurehPa in 1014.1 in -
Precipitation: 0.0 in    
Historical Graphs
 
 
Tabular Data for February 9, 2018
Time Temperature Dew Point Pressure Wind Wind Speed Wind Gust Humidity Rainfall Rate (Hourly)
TemperatureC °F DewpointC °F PressurehPa in Calm     Humidity % HourlyPrecipMM in
00:03 -0.8 °F -2.4 °F 1019.9 in NNE 1.4 mph 4.8 mph 89 % 0.0 in
00:09 -0.8 °F -2.4 °F 1019.9 in Calm   8.0 mph 89 % 0.0 in
00:15 -0.9 °F -2.5 °F 1019.9 in NNE 7.9 mph 8.0 mph 89 % 0.0 in
00:21 -0.9 °F -2.6 °F 1019.9 in NNE 4.7 mph 8.0 mph 88 % 0.0 in
00:27 -1.0 °F -2.7 °F 1019.9 in Calm   4.8 mph 88 % 0.0 in
00:33 -1.1 °F -2.7 °F 1019.5 in NNE 3.2 mph 4.8 mph 89 % 0.0 in
00:39 -1.1 °F -2.7 °F 1019.5 in Calm   3.2 mph 89 % 0.0 in
00:45 -1.1 °F -2.7 °F 1019.5 in Calm   3.2 mph 89 % 0.0 in
00:51 -1.2 °F -2.8 °F 1019.5 in NNE 1.4 mph 3.2 mph 89 % 0.0 in
00:57 -1.2 °F -2.8 °F 1019.5 in Calm   1.6 mph 89 % 0.0 in
01:03 -1.2 °F -2.6 °F 1019.5 in Calm   1.6 mph 90 % 0.0 in
01:09 -1.2 °F -2.6 °F 1019.5 in Calm   1.6 mph 90 % 0.0 in
01:15 -1.3 °F -2.6 °F 1019.5 in Calm   3.2 mph 91 % 0.0 in
01:21 -1.2 °F -2.5 °F 1019.5 in NNE 1.4 mph 3.2 mph 91 % 0.0 in
01:27 -1.2 °F -2.3 °F 1019.5 in Calm   3.2 mph 92 % 0.0 in
01:33 -1.2 °F -2.3 °F 1019.5 in Calm   6.4 mph 92 % 0.0 in
01:39 -1.2 °F -2.3 °F 1019.5 in NNE 6.4 mph 6.4 mph 92 % 0.0 in
01:45 -1.2 °F -2.5 °F 1019.5 in NNE 1.4 mph 8.0 mph 91 % 0.0 in
01:51 -1.2 °F -2.5 °F 1019.5 in NNE 4.7 mph 6.4 mph 91 % 0.0 in
01:57 -1.2 °F -2.3 °F 1019.5 in NNE 1.4 mph 4.8 mph 92 % 0.0 in
02:03 -1.2 °F -2.3 °F 1019.2 in NNE 3.2 mph 8.0 mph 92 % 0.0 in
02:09 -1.2 °F -2.5 °F 1019.2 in NNE 4.7 mph 9.7 mph 91 % 0.0 in
02:15 -1.2 °F -2.6 °F 1019.2 in NNE 7.9 mph 9.7 mph 90 % 0.0 in
02:22 -1.2 °F -2.8 °F 1019.2 in NNE 4.7 mph 12.9 mph 89 % 0.0 in
02:28 -1.2 °F -2.8 °F 1019.2 in NNE 1.4 mph 8.0 mph 89 % 0.0 in
02:34 -1.2 °F -2.8 °F 1019.2 in NNE 9.7 mph 11.3 mph 89 % 0.0 in
02:40 -1.2 °F -2.8 °F 1019.2 in NNE 11.1 mph 11.3 mph 89 % 0.0 in
02:46 -1.2 °F -2.8 °F 1019.2 in NNE 4.7 mph 8.0 mph 89 % 0.0 in
02:52 -1.1 °F -2.7 °F 1018.8 in NNE 9.7 mph 9.7 mph 89 % 0.0 in
02:58 -1.1 °F -2.7 °F 1018.8 in NNE 3.2 mph 8.0 mph 89 % 0.0 in
03:04 -1.1 °F -2.7 °F 1018.8 in NNE 3.2 mph 6.4 mph 89 % 0.0 in
03:10 -1.2 °F -2.8 °F 1018.8 in NNE 4.7 mph 6.4 mph 89 % 0.0 in
03:16 -1.2 °F -2.8 °F 1018.5 in NNE 4.7 mph 6.4 mph 89 % 0.0 in
03:22 -1.2 °F -2.8 °F 1018.5 in NNE 1.4 mph 4.8 mph 89 % 0.0 in
03:28 -1.2 °F -2.6 °F 1018.5 in NNE 6.4 mph 6.4 mph 90 % 0.0 in
03:34 -1.3 °F -2.7 °F 1018.5 in NNE 3.2 mph 6.4 mph 90 % 0.0 in
03:40 -1.3 °F -2.7 °F 1018.5 in NNE 6.4 mph 6.4 mph 90 % 0.0 in
03:46 -1.3 °F -2.7 °F 1018.5 in NNE 1.4 mph 6.4 mph 90 % 0.0 in
03:52 -1.3 °F -2.6 °F 1018.2 in NNE 3.2 mph 4.8 mph 91 % 0.0 in
03:58 -1.4 °F -2.7 °F 1017.8 in NNE 4.7 mph 8.0 mph 91 % 0.0 in
04:04 -1.4 °F -2.7 °F 1017.8 in NNE 1.4 mph 4.8 mph 91 % 0.0 in
04:10 -1.4 °F -2.7 °F 1017.8 in Calm   3.2 mph 91 % 0.0 in
04:16 -1.4 °F -2.7 °F 1017.8 in NNE 1.4 mph 3.2 mph 91 % 0.0 in
04:22 -1.4 °F -2.7 °F 1017.8 in NNE 1.4 mph 4.8 mph 91 % 0.0 in
04:28 -1.3 °F -2.4 °F 1017.8 in NNE 1.4 mph 4.8 mph 92 % 0.0 in
04:34 -1.4 °F -2.5 °F 1017.8 in NNE 1.4 mph 8.0 mph 92 % 0.0 in
04:40 -1.4 °F -2.5 °F 1017.8 in NNE 4.7 mph 4.8 mph 92 % 0.0 in
04:46 -1.4 °F -2.5 °F 1017.8 in NNE 1.4 mph 6.4 mph 92 % 0.0 in
04:52 -1.4 °F -2.5 °F 1017.8 in NNE 7.9 mph 12.9 mph 92 % 0.0 in
04:58 -1.3 °F -2.6 °F 1017.8 in NNE 1.4 mph 6.4 mph 91 % 0.0 in
05:04 -1.3 °F -2.4 °F 1017.8 in NNE 4.7 mph 6.4 mph 92 % 0.0 in
05:10 -1.3 °F -2.4 °F 1017.8 in NNE 3.2 mph 8.0 mph 92 % 0.0 in
05:16 -1.3 °F -2.4 °F 1017.8 in NNE 3.2 mph 8.0 mph 92 % 0.0 in
05:22 -1.4 °F -2.5 °F 1017.8 in NNE 6.4 mph 11.3 mph 92 % 0.0 in
05:28 -1.5 °F -2.8 °F 1017.8 in NNE 6.4 mph 12.9 mph 91 % 0.0 in
05:34 -1.6 °F -2.7 °F 1017.8 in NNE 4.7 mph 6.4 mph 92 % 0.0 in
05:40 -1.7 °F -3.1 °F 1017.8 in NNE 6.4 mph 11.3 mph 90 % 0.0 in
05:46 -1.7 °F -3.0 °F 1017.8 in NNE 9.7 mph 9.7 mph 91 % 0.0 in
05:52 -1.7 °F -3.0 °F 1017.8 in NNE 7.9 mph 8.0 mph 91 % 0.0 in
05:58 -1.8 °F -3.1 °F 1017.5 in NNE 6.4 mph 6.4 mph 91 % 0.0 in
06:04 -1.8 °F -3.1 °F 1017.5 in NNE 1.4 mph 8.0 mph 91 % 0.0 in
06:10 -1.8 °F -3.1 °F 1017.5 in NNE 1.4 mph 6.4 mph 91 % 0.0 in
06:16 -1.8 °F -3.1 °F 1017.5 in NNE 3.2 mph 6.4 mph 91 % 0.0 in
06:22 -1.8 °F -3.1 °F 1017.5 in NNE 4.7 mph 8.0 mph 91 % 0.0 in
06:28 -1.8 °F -3.1 °F 1017.2 in NNE 1.4 mph 6.4 mph 91 % 0.0 in
06:34 -1.8 °F -3.1 °F 1017.2 in NNE 4.7 mph 8.0 mph 91 % 0.0 in
06:41 -1.9 °F -3.3 °F 1017.2 in NNE 4.7 mph 8.0 mph 90 % 0.0 in
06:47 -1.9 °F -3.2 °F 1017.2 in NNE 4.7 mph 8.0 mph 91 % 0.0 in
06:53 -2.1 °F -3.5 °F 1017.2 in NNE 4.7 mph 9.7 mph 90 % 0.0 in
06:59 -2.1 °F -3.5 °F 1017.2 in NNE 3.2 mph 4.8 mph 90 % 0.0 in
07:05 -2.2 °F -3.5 °F 1017.2 in NNE 1.4 mph 3.2 mph 91 % 0.0 in
07:11 -2.4 °F -3.7 °F 1017.2 in NNE 1.4 mph 3.2 mph 91 % 0.0 in
07:17 -2.5 °F -3.6 °F 1017.2 in NNE 3.2 mph 3.2 mph 92 % 0.0 in
07:23 -2.6 °F -3.7 °F 1017.2 in NNE 1.4 mph 4.8 mph 92 % 0.0 in
07:29 -2.7 °F -3.8 °F 1017.2 in NNE 3.2 mph 3.2 mph 92 % 0.0 in
07:35 -2.7 °F -3.7 °F 1017.2 in NNE 1.4 mph 3.2 mph 93 % 0.0 in
07:41 -2.7 °F -3.7 °F 1016.8 in NNE 1.4 mph 3.2 mph 93 % 0.0 in
07:47 -2.8 °F -3.8 °F 1016.8 in NNE 1.4 mph 3.2 mph 93 % 0.0 in
07:53 -2.9 °F -3.9 °F 1016.8 in NNE 3.2 mph 3.2 mph 93 % 0.0 in
07:59 -2.9 °F -3.9 °F 1016.8 in NNE 1.4 mph 6.4 mph 93 % 0.0 in
08:05 -3.0 °F -4.0 °F 1016.8 in Calm   4.8 mph 93 % 0.0 in
08:11 -3.1 °F -3.9 °F 1016.8 in Calm   4.8 mph 94 % 0.0 in
08:17 -3.1 °F -3.9 °F 1016.8 in NNE 3.2 mph 3.2 mph 94 % 0.0 in
08:23 -3.2 °F -4.0 °F 1016.8 in Calm   4.8 mph 94 % 0.0 in
08:29 -3.2 °F -4.0 °F 1016.8 in NNE 3.2 mph 6.4 mph 94 % 0.0 in
08:35 -3.1 °F -3.9 °F 1016.8 in Calm   8.0 mph 94 % 0.0 in
08:41 -3.2 °F -4.2 °F 1016.8 in NNE 3.2 mph 9.7 mph 93 % 0.0 in
08:47 -3.2 °F -4.0 °F 1016.8 in NNE 1.4 mph 4.8 mph 94 % 0.0 in
08:53 -3.0 °F -3.8 °F 1016.8 in NNE 1.4 mph 3.2 mph 94 % 0.0 in
08:59 -2.9 °F -3.9 °F 1016.8 in NNE 1.4 mph 4.8 mph 93 % 0.0 in
09:05 -2.9 °F -3.9 °F 1016.8 in NNE 4.7 mph 8.0 mph 93 % 0.0 in
09:12 -2.8 °F -3.8 °F 1016.8 in NNE 3.2 mph 8.0 mph 93 % 0.0 in
09:18 -2.8 °F -3.8 °F 1016.8 in NNE 3.2 mph 9.7 mph 93 % 0.0 in
09:24 -2.8 °F -3.8 °F 1016.5 in NNE 3.2 mph 8.0 mph 93 % 0.0 in
09:30 -2.6 °F -3.6 °F 1016.5 in NNE 3.2 mph 9.7 mph 93 % 0.0 in
09:36 -2.5 °F -3.5 °F 1016.5 in NNE 4.7 mph 6.4 mph 93 % 0.0 in
09:42 -2.4 °F -3.4 °F 1016.5 in NNE 3.2 mph 6.4 mph 93 % 0.0 in
09:48 -2.2 °F -3.3 °F 1016.5 in NNE 3.2 mph 9.7 mph 92 % 0.0 in
09:54 -2.1 °F -3.2 °F 1016.5 in NNE 7.9 mph 8.0 mph 92 % 0.0 in
10:00 -2.2 °F -3.5 °F 1016.5 in NNE 4.7 mph 9.7 mph 91 % 0.0 in
10:06 -2.1 °F -3.4 °F 1016.5 in NNE 6.4 mph 9.7 mph 91 % 0.0 in
10:12 -1.9 °F -3.2 °F 1016.1 in NNE 7.9 mph 12.9 mph 91 % 0.0 in
10:18 -1.7 °F -3.1 °F 1016.1 in NNE 11.1 mph 16.1 mph 90 % 0.0 in
10:24 -1.6 °F -3.0 °F 1016.1 in NNE 9.7 mph 12.9 mph 90 % 0.0 in
10:30 -1.6 °F -3.0 °F 1016.5 in NNE 11.1 mph 12.9 mph 90 % 0.0 in
10:36 -1.4 °F -3.0 °F 1016.1 in NNE 9.7 mph 12.9 mph 89 % 0.0 in
10:42 -1.3 °F -2.9 °F 1016.1 in NNE 7.9 mph 11.3 mph 89 % 0.0 in
10:48 -1.2 °F -2.8 °F 1016.1 in NNE 4.7 mph 12.9 mph 89 % 0.0 in
10:54 -1.1 °F -2.8 °F 1016.1 in NNE 7.9 mph 14.5 mph 88 % 0.0 in
11:00 -1.0 °F -2.7 °F 1016.1 in SW 13.0 mph 14.5 mph 88 % 0.0 in
11:06 -0.9 °F -2.6 °F 1016.1 in SW 13.0 mph 14.5 mph 88 % 0.0 in
11:12 -0.9 °F -2.6 °F 1016.1 in SW 9.7 mph 11.3 mph 88 % 0.0 in
11:18 -0.9 °F -2.6 °F 1016.1 in SW 14.3 mph 14.5 mph 88 % 0.0 in
11:24 -0.8 °F -2.4 °F 1016.1 in SSW 7.9 mph 11.3 mph 89 % 0.0 in
11:30 -0.8 °F -2.5 °F 1016.1 in SSW 6.4 mph 11.3 mph 88 % 0.0 in
11:36 -0.7 °F -2.4 °F 1015.8 in SW 9.7 mph 11.3 mph 88 % 0.0 in
11:42 -0.7 °F -2.4 °F 1015.8 in SSW 9.7 mph 11.3 mph 88 % 0.0 in
11:48 -0.6 °F -2.3 °F 1015.5 in SSW 6.4 mph 9.7 mph 88 % 0.0 in
11:54 -0.6 °F -2.3 °F 1015.5 in SSW 7.9 mph 16.1 mph 88 % 0.0 in
12:00 -0.6 °F -2.3 °F 1015.5 in SSW 7.9 mph 12.9 mph 88 % 0.0 in
12:06 -0.6 °F -2.3 °F 1015.5 in South 6.4 mph 11.3 mph 88 % 0.0 in
12:12 -0.4 °F -2.1 °F 1015.5 in South 9.7 mph 12.9 mph 88 % 0.0 in
12:18 -0.3 °F -2.2 °F 1015.5 in South 11.1 mph 12.9 mph 87 % 0.0 in
12:24 -0.3 °F -2.4 °F 1015.1 in SSW 11.1 mph 16.1 mph 86 % 0.0 in
12:30 -0.2 °F -2.1 °F 1015.1 in SW 11.1 mph 17.7 mph 87 % 0.0 in
12:36 -0.2 °F -2.1 °F 1015.1 in SW 9.7 mph 17.7 mph 87 % 0.0 in
12:42 -0.1 °F -2.2 °F 1015.1 in SSW 11.1 mph 14.5 mph 86 % 0.0 in
12:48 0.1 °F -2.0 °F 1015.1 in SW 11.1 mph 16.1 mph 86 % 0.0 in
12:54 0.1 °F -2.0 °F 1015.1 in SW 14.3 mph 17.7 mph 86 % 0.0 in
13:00 0.2 °F -1.9 °F 1014.8 in SSW 16.3 mph 16.3 mph 86 % 0.0 in
13:06 0.2 °F -1.9 °F 1014.8 in South 11.1 mph 17.7 mph 86 % 0.0 in
13:12 0.3 °F -1.8 °F 1014.8 in SW 9.7 mph 16.1 mph 86 % 0.0 in
13:18 0.3 °F -1.8 °F 1014.4 in SW 11.1 mph 16.1 mph 86 % 0.0 in
13:24 0.3 °F -1.8 °F 1014.4 in SW 11.1 mph 17.7 mph 86 % 0.0 in
13:30 0.3 °F -1.6 °F 1014.4 in SSW 11.1 mph 11.3 mph 87 % 0.0 in
13:36 0.2 °F -1.9 °F 1014.8 in WSW 7.9 mph 14.5 mph 86 % 0.0 in
13:42 0.3 °F -1.8 °F 1014.4 in SW 13.0 mph 19.3 mph 86 % 0.0 in
13:48 0.3 °F -1.6 °F 1014.4 in WSW 9.7 mph 16.1 mph 87 % 0.0 in
13:54 0.3 °F -1.6 °F 1014.4 in SSW 13.0 mph 20.9 mph 87 % 0.0 in
14:00 0.3 °F -1.6 °F 1014.4 in South 11.1 mph 14.5 mph 87 % 0.0 in
14:06 0.3 °F -1.5 °F 1014.4 in SSW 11.1 mph 16.1 mph 88 % 0.0 in
14:12 0.4 °F -1.2 °F 1014.1 in SW 13.0 mph 17.7 mph 89 % 0.0 in
14:18 0.4 °F -1.2 °F 1014.4 in SW 9.7 mph 14.5 mph 89 % 0.0 in
14:24 0.3 °F -1.3 °F 1014.1 in SW 13.0 mph 16.1 mph 89 % 0.0 in
14:30 0.1 °F -1.3 °F 1014.1 in SSW 13.0 mph 17.7 mph 90 % 0.0 in
14:36 0.1 °F -1.0 °F 1014.1 in SSW 9.7 mph 14.5 mph 92 % 0.0 in
14:42 0.0 °F -1.1 °F 1014.1 in SSW 9.7 mph 14.5 mph 92 % 0.0 in
14:48 -0.1 °F -1.1 °F 1014.1 in SSW 6.4 mph 14.5 mph 93 % 0.0 in
14:54 -0.2 °F -1.0 °F 1014.1 in South 7.9 mph 9.7 mph 94 % 0.0 in
15:00 -0.2 °F -1.0 °F 1014.1 in SSW 6.4 mph 11.3 mph 94 % 0.0 in
15:06 -0.2 °F -0.9 °F 1014.1 in SW 4.7 mph 8.0 mph 95 % 0.0 in
15:12 -0.3 °F -1.0 °F 1014.1 in SSW 6.4 mph 6.4 mph 95 % 0.0 in
15:18 -0.3 °F -1.0 °F 1014.1 in SSW 4.7 mph 8.0 mph 95 % 0.0 in
15:24 -0.3 °F -0.9 °F 1014.1 in SW 7.9 mph 9.7 mph 96 % 0.0 in
15:30 -0.3 °F -0.9 °F 1014.1 in SSW 6.4 mph 12.9 mph 96 % 0.0 in
15:36 -0.3 °F -0.9 °F 1014.1 in SSW 6.4 mph 9.7 mph 96 % 0.0 in
15:42 -0.3 °F -0.9 °F 1014.1 in SSW 6.4 mph 9.7 mph 96 % 0.0 in
15:48 -0.3 °F -0.9 °F 1014.1 in SSW 6.4 mph 8.0 mph 96 % 0.0 in
15:54 -0.3 °F -0.9 °F 1014.1 in SSW 6.4 mph 9.7 mph 96 % 0.0 in
16:00 -0.3 °F -0.9 °F 1014.1 in SSW 6.4 mph 9.7 mph 96 % 0.0 in
16:06 -0.3 °F -0.9 °F 1014.1 in SSW 3.2 mph 6.4 mph 96 % 0.0 in
16:12 -0.3 °F -0.9 °F 1014.1 in South 3.2 mph 6.4 mph 96 % 0.0 in
16:18 -0.2 °F -0.8 °F 1014.1 in SW 4.7 mph 6.4 mph 96 % 0.0 in
16:24 -0.2 °F -0.8 °F 1014.1 in SSW 4.7 mph 4.8 mph 96 % 0.0 in
16:30 -0.2 °F -0.8 °F 1014.1 in SSW 6.4 mph 6.4 mph 96 % 0.0 in
16:36 -0.2 °F -0.6 °F 1014.1 in SW 4.7 mph 4.8 mph 97 % 0.0 in
16:42 -0.2 °F -0.6 °F 1014.1 in SW 1.4 mph 4.8 mph 97 % 0.0 in
16:48 -0.2 °F -0.6 °F 1014.1 in SSW 3.2 mph 6.4 mph 97 % 0.0 in
16:54 -0.2 °F -0.6 °F 1014.1 in SW 1.4 mph 3.2 mph 97 % 0.0 in
17:00 -0.2 °F -0.6 °F 1014.1 in SSW 3.2 mph 4.8 mph 97 % 0.0 in
17:06 -0.1 °F -0.5 °F 1014.1 in SW 4.7 mph 6.4 mph 97 % 0.0 in
17:12 -0.1 °F -0.5 °F 1014.1 in SSW 4.7 mph 4.8 mph 97 % 0.0 in
17:18 -0.1 °F -0.5 °F 1014.1 in WSW 1.4 mph 3.2 mph 97 % 0.0 in
17:24 -0.1 °F -0.5 °F 1014.1 in Calm   1.6 mph 97 % 0.0 in
17:30 -0.1 °F -0.5 °F 1014.1 in Calm   1.6 mph 97 % 0.0 in
17:36 -0.1 °F -0.5 °F 1014.4 in Calm     97 % 0.0 in
17:42 -0.1 °F -0.5 °F 1014.4 in Calm     97 % 0.0 in
17:48 0.0 °F -0.4 °F 1014.4 in Calm     97 % 0.0 in
17:54 0.0 °F -0.6 °F 1014.4 in Calm     96 % 0.0 in
18:00 -0.1 °F -0.7 °F 1014.4 in Calm   1.6 mph 96 % 0.0 in
18:06 -0.1 °F -0.7 °F 1014.8 in Calm   1.6 mph 96 % 0.0 in
18:12 -0.1 °F -0.7 °F 1014.8 in Calm   1.6 mph 96 % 0.0 in
18:18 0.0 °F -0.6 °F 1014.8 in Calm   1.6 mph 96 % 0.0 in
18:25 0.0 °F -0.6 °F 1014.8 in Calm   1.6 mph 96 % 0.0 in
18:31 0.1 °F -0.5 °F 1014.8 in Calm     96 % 0.0 in
18:37 0.2 °F -0.4 °F 1014.8 in Calm     96 % 0.0 in
18:43 0.2 °F -0.4 °F 1015.1 in Calm   1.6 mph 96 % 0.0 in
18:49 0.2 °F -0.4 °F 1015.1 in Calm   1.6 mph 96 % 0.0 in
18:55 0.2 °F -0.5 °F 1015.5 in Calm   1.6 mph 95 % 0.0 in
19:01 0.2 °F -0.5 °F 1015.5 in Calm   3.2 mph 95 % 0.0 in
19:07 0.2 °F -0.5 °F 1015.5 in WNW 3.2 mph 3.2 mph 95 % 0.0 in
19:13 0.3 °F -0.4 °F 1015.5 in WNW 3.2 mph 6.4 mph 95 % 0.0 in
19:19 0.4 °F -0.3 °F 1015.8 in NW 3.2 mph 6.4 mph 95 % 0.0 in
19:25 0.4 °F -0.3 °F 1015.8 in NW 4.7 mph 6.4 mph 95 % 0.0 in
19:31 0.4 °F -0.3 °F 1015.8 in NW 4.7 mph 8.0 mph 95 % 0.0 in
19:37 0.4 °F -0.3 °F 1015.8 in West 6.4 mph 9.7 mph 95 % 0.0 in
19:43 0.4 °F -0.3 °F 1016.1 in West 9.7 mph 9.7 mph 95 % 0.0 in
19:49 0.4 °F -0.3 °F 1016.1 in WNW 1.4 mph 9.7 mph 95 % 0.0 in
19:55 0.4 °F -0.3 °F 1016.1 in WNW 4.7 mph 6.4 mph 95 % 0.0 in
20:01 0.4 °F -0.3 °F 1016.1 in WNW 1.4 mph 4.8 mph 95 % 0.0 in
20:07 0.3 °F -0.4 °F 1016.1 in WNW 4.7 mph 9.7 mph 95 % 0.0 in
20:13 0.4 °F -0.5 °F 1016.5 in West 4.7 mph 9.7 mph 94 % 0.0 in
20:19 0.4 °F -0.5 °F 1016.5 in WNW 4.7 mph 9.7 mph 94 % 0.0 in
20:25 0.4 °F -0.5 °F 1016.5 in WNW 3.2 mph 16.1 mph 94 % 0.0 in
20:31 0.4 °F -0.5 °F 1016.5 in West 3.2 mph 9.7 mph 94 % 0.0 in
20:37 0.4 °F -0.5 °F 1016.5 in West 4.7 mph 9.7 mph 94 % 0.0 in
20:43 0.4 °F -0.5 °F 1016.8 in WNW 3.2 mph 11.3 mph 94 % 0.0 in
20:49 0.4 °F -0.5 °F 1016.5 in West 1.4 mph 12.9 mph 94 % 0.0 in
20:55 0.4 °F -0.5 °F 1016.8 in West 4.7 mph 11.3 mph 94 % 0.0 in
21:01 0.4 °F -0.6 °F 1016.8 in WSW 1.4 mph 8.0 mph 93 % 0.0 in
21:07 0.4 °F -0.6 °F 1016.8 in WNW 3.2 mph 9.7 mph 93 % 0.0 in
21:13 0.4 °F -0.5 °F 1016.8 in West 1.4 mph 9.7 mph 94 % 0.0 in
21:19 0.6 °F -0.3 °F 1016.8 in NW 1.4 mph 8.0 mph 94 % 0.0 in
21:25 0.6 °F -0.4 °F 1016.8 in NW 4.7 mph 6.4 mph 93 % 0.0 in
21:31 0.6 °F -0.4 °F 1016.8 in WNW 4.7 mph 8.0 mph 93 % 0.0 in
21:37 0.6 °F -0.4 °F 1017.2 in WNW 6.4 mph 9.7 mph 93 % 0.0 in
21:43 0.6 °F -0.4 °F 1017.2 in West 4.7 mph 6.4 mph 93 % 0.0 in
21:49 0.6 °F -0.4 °F 1017.2 in WNW 4.7 mph 8.0 mph 93 % 0.0 in
21:55 0.7 °F -0.3 °F 1017.2 in West 6.4 mph 11.3 mph 93 % 0.0 in
22:01 0.7 °F -0.3 °F 1017.2 in West 7.9 mph 11.3 mph 93 % 0.0 in
22:07 0.7 °F -0.3 °F 1017.2 in WNW 4.7 mph 8.0 mph 93 % 0.0 in
22:13 0.7 °F -0.3 °F 1017.5 in West 3.2 mph 9.7 mph 93 % 0.0 in
22:19 0.7 °F -0.3 °F 1017.5 in West 7.9 mph 9.7 mph 93 % 0.0 in
22:25 0.8 °F -0.2 °F 1017.5 in WNW 3.2 mph 11.3 mph 93 % 0.0 in
22:31 0.8 °F -0.2 °F 1017.5 in WNW 7.9 mph 9.7 mph 93 % 0.0 in
22:37 0.7 °F -0.3 °F 1017.5 in WNW 7.9 mph 9.7 mph 93 % 0.0 in
22:43 0.8 °F -0.2 °F 1017.5 in West 6.4 mph 11.3 mph 93 % 0.0 in
22:49 0.8 °F -0.2 °F 1017.5 in NW 6.4 mph 12.9 mph 93 % 0.0 in
22:55 0.8 °F -0.2 °F 1017.5 in WNW 6.4 mph 11.3 mph 93 % 0.0 in
23:01 0.8 °F -0.2 °F 1017.5 in WNW 7.9 mph 14.5 mph 93 % 0.0 in
23:07 0.9 °F -0.1 °F 1017.5 in WNW 1.4 mph 11.3 mph 93 % 0.0 in
23:13 0.8 °F -0.2 °F 1017.8 in West 4.7 mph 12.9 mph 93 % 0.0 in
23:19 0.8 °F -0.2 °F 1017.5 in NW 11.1 mph 12.9 mph 93 % 0.0 in
23:25 0.8 °F -0.2 °F 1017.5 in WNW 7.9 mph 12.9 mph 93 % 0.0 in
23:31 0.8 °F -0.2 °F 1017.8 in NW 6.4 mph 11.3 mph 93 % 0.0 in
23:37 0.8 °F -0.2 °F 1017.8 in NNW 6.4 mph 11.3 mph 93 % 0.0 in
23:43 0.7 °F -0.3 °F 1017.8 in West 7.9 mph 11.3 mph 93 % 0.0 in
23:49 0.7 °F -0.3 °F 1017.8 in WNW 1.4 mph 11.3 mph 93 % 0.0 in
23:55 0.6 °F -0.4 °F 1018.2 in WNW 6.4 mph 11.3 mph 93 % 0.0 in
Meteo18
Compliments of Weather Underground - 4 mb

Script developed by  Jim McMurry - jmcmurry@mwt.net Adapted for the template by  Wim van der Kuil - Leuven-Template.eu

You find our weather info also at:

European Weather Network

Weather Underground

Equipment we use:

Weather-station
Davis Vue

Weather-program
Meteobridge

Weather-server
Raspberry PI 2 B+

Provider
1 and 1

Davis Vue

Meteobridge

Raspberry PI 2 B+

1 and 1